Location: College Rock
(37.2713°N, 119.1740°W)
Time: 04:24:34
(UTC+00:00)

Cosmos 2228 - Pass Details

Date: 29 October 2020
Orbit: 590 x 617 km, 82.5° (Epoch: 23 November)

Event Time Altitude Azimuth Distance (km) Brightness Sun altitude
Rises 12:57:26 0° 344° (NNW) 2,881 6.3 -16.7°
Reaches altitude 10° 12:59:45 10° 337° (NNW) 1,976 5.4 -16.3°
Maximum altitude 13:03:49 39° 268° (W) 928 3.4 -15.5°
Drops below altitude 10° 13:07:53 10° 200° (SSW) 1,971 5.5 -14.6°
Sets 13:10:12 0° 192° (SSW) 2,873 6.4 -14.2°
